This is the latest recevied weather packets stored in our database for station/object K7CTM. If no packets are shown the sender has not sent any weather packets the latest 10 day(s).
| Time | Temp. | Humidity | Pressure | Rain* | Wind** | Luminosity | Snow |
|---|---|---|---|---|---|---|---|
| 1777688169 | 19.44° C | 19% | 1027 hPa | 0 mm | - | 8 W/m² | - |
| 1777687866 | 20° C | 19% | 1027.1 hPa | 0 mm | - | 11 W/m² | - |
| 1777687564 | 20° C | 18% | 1027.1 hPa | 0 mm | - | 14 W/m² | - |
| 1777687260 | 20.56° C | 18% | 1027.2 hPa | 0 mm | - | 17 W/m² | - |
| 1777686958 | 20.56° C | 18% | 1026.9 hPa | 0 mm | - | 21 W/m² | - |
| 1777686654 | 20.56° C | 17% | 1027 hPa | 0 mm | - | 24 W/m² | - |
| 1777686351 | 20.56° C | 17% | 1027 hPa | 0 mm | - | 27 W/m² | - |
| 1777686049 | 21.11° C | 16% | 1026.9 hPa | 0 mm | - | 30 W/m² | - |
| 1777685743 | 21.11° C | 16% | 1026.9 hPa | 0 mm | - | 33 W/m² | - |
| 1777685440 | 20.56° C | 16% | 1026.9 hPa | 0 mm | - | 37 W/m² | - |
| 1777685137 | 21.11° C | 16% | 1026.9 hPa | 0 mm | - | 41 W/m² | - |
| 1777684835 | 21.11° C | 16% | 1026.9 hPa | 0 mm | - | 46 W/m² | - |
| 1777684532 | 21.11° C | 16% | 1026.8 hPa | 0 mm | - | 57 W/m² | - |
| 1777684228 | 21.11° C | 17% | 1026.9 hPa | 0 mm | - | 68 W/m² | - |
| 1777683926 | 22.22° C | 16% | 1026.8 hPa | 0 mm | - | 76 W/m² | - |
| 1777683622 | 21.11° C | 18% | 1026.6 hPa | 0 mm | - | 85 W/m² | - |
| 1777683320 | 21.11° C | 16% | 1027 hPa | 0 mm | - | 94 W/m² | - |
| 1777683018 | 21.67° C | 17% | 1026.9 hPa | 0 mm | - | 107 W/m² | - |
| 1777682713 | 21.67° C | 18% | 1026.9 hPa | 0 mm | - | 120 W/m² | - |
| 1777682410 | 21.67° C | 19% | 1027.1 hPa | 0 mm | - | 133 W/m² | - |
| 1777682108 | 21.67° C | 19% | 1026.9 hPa | 0 mm | - | 147 W/m² | - |
| 1777681804 | 21.67° C | 17% | 1027.1 hPa | 0 mm | - | 161 W/m² | - |
| 1777681501 | 21.67° C | 17% | 1026.8 hPa | 0 mm | - | 175 W/m² | - |
| 1777681198 | 21.67° C | 17% | 1027 hPa | 0 mm | - | 190 W/m² | - |
| 1777680895 | 21.67° C | 17% | 1026.9 hPa | 0 mm | - | 203 W/m² | - |
* Rain latest hour (hover to see other rain measurements)
** Current wind speed in m/s (hover to see current wind gust speed)